Regional Weather Roundup
Issued by NWS Newport/Morehead, NC

Current Version | Previous Version | Graphics & Text | Print | Product List | Glossary On
Versions: 1 2 3 4 5 6 7 8 9 10 11 12 13 14 15 16 17 18 19 20 21 22 23 24 25 26 27 28 29 30 31 32 33 34 35 36 37 38 39 40 41 42 43 44 45 46 47 48 49 50
000 ASUS42 KMHX 020622 RWRMHX WEATHER ROUNDUP FOR EASTERN NORTH CAROLINA NATIONAL WEATHER SERVICE NEWPORT/MOREHEAD CITY NC 200 AM EDT THU OCT 02 2014 NOTE: "FAIR" INDICATES FEW OR NO CLOUDS BELOW 12,000 FEET WITH NO SIGNIFICANT WEATHER AND/OR OBSTRUCTIONS TO VISIBILITY NCZ015>017-031-032-045>047-102-103-020700- NORTH COAST CITY SKY/WX TMP DP RH WIND PRES REMARKS EDENTON PTCLDY 60 59 97 N5 30.06R ELIZABETH CITY PTCLDY 66 62 87 E5 30.05R KITTY HAWK PTCLDY 67 62 83 NE3 30.03R MANTEO CLEAR 66 62 85 N6 30.04S $$ NCZ045>047-081-094-103-104-020700- CENTRAL COAST CITY SKY/WX TMP DP RH WIND PRES REMARKS FRISCO CLEAR 66 63 90 NE6 30.03S SWANQUARTER N/A 64 N/A N/A NE1 30.00S $$ NCZ095-097-098-100-101-020700- SOUTHERN COAST CITY SKY/WX TMP DP RH WIND PRES REMARKS BEAUFORT CLEAR 66 65 96 NE3 30.05R CEDAR ISLAND N/A 70 N/A N/A NE3 30.09S JACKSONVILLE CLEAR 64 62 93 CALM 30.05R NEWPORT NOT AVBL PINEY ISLAND CLEAR 72 65 78 E5 30.04R WILMINGTON CLEAR 64 63 96 CALM 30.04R $$ NCZ011>013-027>030-043-044-078>080-089-090>093-098-020700- COASTAL PLAIN CITY SKY/WX TMP DP RH WIND PRES REMARKS AHOSKIE MOCLDY 61 59 95 CALM 30.06S CLINTON CLEAR 61 61 100 CALM 30.06R FOG ELIZABETHTOWN CLEAR 64 64 100 CALM 30.05S FOG GOLDSBORO CLEAR 63 62 98 CALM 30.04R GREENVILLE N/A 63 63 100 CALM 30.07S FOG HAVELOCK PTCLDY 63 62 97 CALM 30.06R FOG KENANSVILLE CLEAR 59 59 100 CALM 30.06S FOG KINSTON FOG 61 61 99 CALM 30.06S VSB 3/4 NEW BERN FOG 64 63 94 CALM 30.06S VSB 1 RICHLANDS CLEAR 61 55 82 CALM 30.06R ROANOKE RAPIDS NOT AVBL ROCKY MOUNT CLEAR 59 58 96 CALM 30.06S FOG WASHINGTON CLEAR 62 61 97 CALM 30.06S WHITEVILLE CLEAR 64 62 95 CALM 30.05R $$ AMZ130-135-150-152-154-156-158-170-250-252-270-ANZ085-086-088-633-658-670-020700- MARINE OBSERVATIONS STATION/POSITION TIME TEMP WIND PRES WAVE SWELL AIR SEA DIR/SP/G HT/PER HT/PER (UTC) (F) (DEG/KT/KT) (MB) (FT/S) (FT/S) CHESAPEAKE LIGHT 0600 69 40/ 11/ 12 1017.9 BUOY 44014 0600 69 71 360/ 14/ 16 1016.3 5/ 7 3/ 7 DUCK 0600 69 73 40/ 8/ 9 1016.4 2E DUCK 0600 N/A 4/ 8 2/13 OREGON INLET 0600 69 74 20/ 9/ 12 1016.7 BUOY 44095 0600 73 N/A 4/ 7 2/13 20E OREGON INLET NOT AVBL HATTERAS CG 0600 69 74 40/ 5/ 11 1017.3 DIAMOND BUOY 0600 70 10/ 14/ 16 1016.5 3/ 7 2/ 7 CAPE LOOKOUT 0600 71 30/ 6/ 8 1017.1 BEAUFORT LAB 0600 68 75 20/ 2/ 3 1016.8 30 SE NEW RIVER 0600 75 79 50/ 8/ 10 1016.6 2/ 7 2/ 7 5 SE WRIGHTSVILL 0600 70 76 310/ 6/ 8 N/A BUOY 41002 0455 79 80 40/ 10/ 12 1015.6 3/ 6 3/ 6 BUOY 41004 0600 78 81 90/ 10/ 12 1016.4 2/ 6 2/ 6 $$

USA.gov is the U.S. government's official web portal to all federal, state and local government web resources and services.